Regional Weather Roundup
Issued by NWS Newport/Morehead, NC

Current Version | Previous Version | Text Only | Print | Product List | Glossary On
Versions: 1 2 3 4 5 6 7 8 9 10 11 12 13 14 15 16 17 18 19 20 21 22 23 24 25 26 27 28 29 30 31 32 33 34 35 36 37 38 39 40 41 42 43 44 45 46 47 48 49 50
000
ASUS42 KMHX 271626
RWRMHX
WEATHER ROUNDUP FOR EASTERN NORTH CAROLINA
NATIONAL WEATHER SERVICE NEWPORT/MOREHEAD CITY NC
1200 PM EDT TUE JUN 27 2017

NOTE: "FAIR" INDICATES FEW OR NO CLOUDS BELOW 12,000 FEET
WITH NO SIGNIFICANT WEATHER AND/OR OBSTRUCTIONS TO VISIBILITY

NCZ015>017-031-032-045>047-102-103-271700-
NORTH COAST

CITY           SKY/WX    TMP DP  RH WIND       PRES   REMARKS
EDENTON        PTSUNNY   84  63  49 CALM      30.03F
ELIZABETH CITY MOSUNNY   83  65  54 SW6       30.01F
KITTY HAWK     CLOUDY    82  59  46 CALM      30.01F
MANTEO         CLOUDY    82  63  52 CALM      30.02F

$$

NCZ045>047-081-094-103-104-271700-
CENTRAL COAST

CITY           SKY/WX    TMP DP  RH WIND       PRES   REMARKS
FRISCO         NOT AVBL

$$

NCZ095-097-098-100-101-271700-
SOUTHERN COAST

CITY           SKY/WX    TMP DP  RH WIND       PRES   REMARKS
BEAUFORT       SUNNY     84  64  50 NW5       30.02F
CEDAR ISLAND   NOT AVBL
JACKSONVILLE   MOSUNNY   83  65  54 VRB5      30.02F
PINEY ISLAND   MOSUNNY  N/A N/A N/A VRB5      30.02F
WILMINGTON     CLOUDY    84  61  45 CALM      30.03S


$$

NCZ011>013-027>030-043-044-078>080-089-090>093-098-271700-
COASTAL PLAIN

CITY           SKY/WX    TMP DP  RH WIND       PRES   REMARKS
AHOSKIE          N/A     78  57  48 N8        30.04F
CLINTON        MOSUNNY   82  61  49 NW5       30.05R
ELIZABETHTOWN  NOT AVBL
GOLDSBORO      NOT AVBL
GREENVILLE     SUNNY     82  59  44 N7        30.05S
HAVELOCK       CLOUDY    85  64  49 N7        30.03F
KENANSVILLE    MOSUNNY   82  63  51 N6        30.04F
KINSTON        MOSUNNY   82  61  47 NW5       30.04F
NEW BERN       CLOUDY    83  62  49 SW5       30.04F
RICHLANDS      CLOUDY    83  61  47 VRB3      30.04S
ROCKY MOUNT    PTSUNNY   79  55  43 N10       30.05F
WASHINGTON     CLOUDY   N/A N/A N/A W5        30.03F
WHITEVILLE     SUNNY     83  62  47 CALM      30.03F

$$

AMZ130-135-150-152-154-156-158-170-250-252-270-ANZ085-086-088-633-658-670-271700-
MARINE OBSERVATIONS

STATION/POSITION TIME  TEMP    WIND        PRES    WAVE   SWELL
                       AIR SEA DIR/SP/G            HT/PER HT/PER
                 (UTC) (F)     (DEG/KT/KT) (MB)    (FT/S) (FT/S)
CHESAPEAKE LIGHT NOT AVBL
64 E VA BEACH    1550   74 75  200/  4/  4 1017.2    1/ 8   2/ 8
DUCK             1600   80 70  240/  6/  8 1016.0
2 E DUCK         NOT AVBL
OREGON INLET     1600   77 78   70/  7/  9 1016.6
13E OREGON INLT  1548      76                N/A     1/ 8   2/ 8
HATTERAS CG      1600   80 77  320/  4/  5 1016.9
DIAMOND BUOY     1550   78 81  350/  6/  8 1016.8    2/ 7   2/ 7
CAPE LOOKOUT     1600   79     140/  5/  5 1016.6
BEAUFORT LAB     1600   83 78   10/  1/  5 1016.1
30 SE NEW RVR IN 1608   80 81   40/  2/  4 1017.3
30 SE NEW RVR IN 1543      81                N/A     2/ 8
27 SE WRIGHTSVLE 1608   80 81  350/  4/  8 1016.7
5 SE WRIGHTSVLE  1608   80 80  170/  2/  4 1016.8
225 S CAPE HAT   1550   78 80  290/ 16/ 17 1017.3    3/ 5   2/ 8
41 SE CHARLESTON 1610   79 81   50/  8/ 10 1016.9

$$



USA.gov is the U.S. government's official web portal to all federal, state and local government web resources and services.